Miscellaneous Local Product
Issued by NWS North Platte, NE

Home | Current Version | Previous Version | Text Only | Print | Product List | Glossary On
Versions: 1 2 3 4 5 6 7 8 9 10 11 12 13 14 15 16 17 18 19 20 21 22 23 24 25 26 27 28 29 30 31 32 33 34 35 36 37 38 39 40 41 42 43 44 45 46 47 48 49 50
000
AXUS43 KLBF 290010
MISLBF


WESTERN AND NORTH CENTRAL NEBRASKA HOURLY WEATHER ROUNDUP
NATIONAL WEATHER SERVICE NORTH PLATTE NE
700 PM CDT SUN AUG 28 2016

NOTE: "FAIR" INDICATES FEW OR NO CLOUDS BELOW 12,000 FEET WITH NO
SIGNIFICANT WEATHER AND/OR OBSTRUCTIONS TO VISIBILITY.

NOTE: STATIONS NOT REPORTING VARIABLES SUCH AS SKY/WEATHER OR
PRESSURE ARE PROVIDED BY RAWS AND APRS NETWORKS AND ARE NOT UNDER
NATIONAL WEATHER SERVICE QUALITY CONTROL.

...OBSERVATIONS IN AND NEAR THE EASTERN PANHANDLE OF NEBRASKA...

CITY           SKY/WX    TMP DP  RH WIND       PRES   REMARKS
PINE RIDGE     SUNNY     86  52  30 S13       30.00R
CHADRON        SUNNY     90  36  14 S10       29.98S
ALLIANCE       CLOUDY    83  51  33 S7        30.06S
SIDNEY         CLOUDY    80  52  37 S10       30.12R
$$

...OBSERVATIONS IN NORTHERN NEBRASKA AND FAR SOUTHERN SOUTH DAKOTA...

CITY           SKY/WX    TMP DP  RH WIND       PRES   REMARKS
WINNER         FAIR      92  63  38 S12       29.95S HX  93
VALENTINE      MOSUNNY   89  57  33 S8        29.99
THEDFORD       SUNNY     86  56  36 S16G24    30.05R
AINSWORTH      CLOUDY    83  63  49 SE8       30.01S
O`NEILL        SUNNY     88  55  32 S10       30.03R
ORD            SUNNY     84  62  47 SE8       30.03R
BROKEN BOW     SUNNY     80  61  52 S13       30.06R
VALENTINE NWR    N/A     92  57  30 S7          N/A  HX  90
BUTTE            N/A     84  61  45 SE10        N/A
HALSEY           N/A     87  59  38 S10G24      N/A
EWING            N/A     84  70  63 S6          N/A
$$

...OBSERVATIONS IN SOUTHWEST NEBRASKA AND FAR NORTHEAST COLORADO...

CITY           SKY/WX    TMP DP  RH WIND       PRES   REMARKS
HOLYOKE        FAIR      81  54  39 SE9       30.08S
IMPERIAL       SUNNY     82  56  40 S13       30.07S
OGALLALA       SUNNY     86  50  28 SE13      30.06S
NORTH PLATTE   SUNNY     84  57  39 S7        30.06R
MCCOOK         SUNNY     82  60  47 SE9       30.05S
LEXINGTON      MOSUNNY   81  62  52 S6        30.06S
STAPLETON        N/A     86  58  38 CALM        N/A
GOTHENBURG       N/A     82  58  43 S8          N/A
CALLAWAY         N/A     78  65  64 S12         N/A
$$

...OBSERVATIONS IN CENTRAL LINCOLN COUNTY AREA...

CITY           SKY/WX    TMP DP  RH WIND       PRES   REMARKS
N.P. AIRPORT   SUNNY     84  57  39 S7        30.06R
N.P. DOWNTOWN    N/A     83  60  45 MISG        N/A
N.P. SOUTHEAST   N/A     83  59  44 S6          N/A
N.P. HILLCREST   N/A     83  57  41 S9          N/A
$$

...SOME OBSERVATIONS FROM AROUND THE REGION...

CITY           SKY/WX    TMP DP  RH WIND       PRES   REMARKS
DENVER         CLOUDY    81  42  25 W17       30.16R
LARAMIE        CLOUDY    77  26  15 N9        30.27S
CHEYENNE       CLOUDY    77  40  26 S10       30.21R
SCOTTSBLUFF    MOSUNNY   83  58  42 SE9       30.06S
RAPID CITY     SUNNY     88  52  29 NE8       29.98R
BISMARCK       SUNNY     87  63  44 SE7       29.90S
PIERRE         SUNNY     94  54  25 W3        29.88S HX  92
SIOUX FALLS    MOSUNNY   87  70  56 S12       30.03R HX  92
OMAHA          MOSUNNY   78  67  68 SE18      30.09R
GRAND ISLAND   SUNNY     86  67  52 SE9       30.04R
KANSAS CITY    PTCLDY    86  69  56 E7        30.07S HX  90
WICHITA        CLOUDY    79  68  69 W6        30.06F
OKLAHOMA CITY  MOSUNNY   90  60  36 SE9       30.01R
DALLAS         MOSUNNY   88  65  46 E12       29.96S HX  90
AMARILLO       PTSUNNY   76  64  66 SE12      30.11R
DODGE CITY     LGT RAIN  71  65  81 SE10      30.07F
HAYS           MOSUNNY   86  63  45 S17       30.04R
GOODLAND       SUNNY     84  56  38 SE12      30.08R
$$




USA.gov is the U.S. government's official web portal to all federal, state and local government web resources and services.